Lapse_Rate
1.7 2.3 2.7 2.8 2.6 2.7 2.9 3.6 4.7 5.7 6.6 6.9 6.9 6.8 5.7 4.9 4.1 3.5 2.8 2.8 3.7 4.3 4.3 4.2 4.7 5.0 5.3 5.0 5.4 5.9 5.8 5.9 6.0 6.1 6.0 6.2 6.6 6.2 6.1 6.5 6.5 6.6 7.0 7.1 6.9 7.2 6.9
2.2 2.4 2.7 2.6 2.6 2.7 3.5 4.9 6.2 7.0 7.0 6.9 7.0 7.1 7.1 6.6 5.5 4.4 3.4 3.3 3.3 3.9 4.4 4.1 4.3 4.7 4.9 5.0 5.5 5.9 5.8 5.9 5.9 6.4 6.4 5.6 6.4 6.8 5.9 6.2 6.4 6.7 6.7 6.9 7.2 7.1 6.8
2.2 2.4 2.6 2.6 2.9 3.6 4.7 6.2 7.1 7.2 7.1 7.2 7.1 7.1 7.1 7.0 7.0 6.2 4.5 3.4 4.0 3.7 4.8 4.7 4.1 4.2 4.5 5.2 5.3 5.6 5.9 5.6 5.9 6.3 6.4 6.3 6.1 6.3 6.5 6.1 6.1 6.4 6.4 6.9 7.2 7.2 7.1
2.2 2.6 2.6 2.8 3.3 4.5 5.8 6.9 7.3 7.5 7.4 7.3 7.2 7.2 7.2 7.1 7.1 7.4 6.5 4.9 4.3 4.3 4.6 5.2 4.5 4.1 4.1 5.5 5.7 5.8 5.6 5.6 5.7 6.1 6.0 6.2 5.5 6.1 6.3 5.9 6.1 6.2 6.2 6.4 6.9 7.1 7.1
2.4 2.6 2.6 2.9 3.8 5.3 6.5 7.3 7.6 7.6 7.4 7.2 7.2 7.3 7.2 7.2 7.3 7.3 7.4 6.8 5.4 5.2 5.9 5.3 5.4 4.5 4.1 5.7 5.9 5.8 5.4 5.8 5.9 5.7 6.3 6.1 6.1 5.6 5.9 5.9 6.1 6.0 6.0 6.0 6.4 6.7 7.2
2.1 2.5 2.7 3.1 4.3 5.8 6.8 7.4 7.5 7.5 7.3 7.3 7.3 7.2 7.2 7.0 7.2 7.3 7.6 7.8 7.4 5.8 6.6 6.3 5.8 5.2 4.3 5.4 6.0 5.9 5.4 5.7 5.7 5.8 5.8 5.9 5.9 5.6 5.2 5.7 5.4 5.8 6.1 6.4 6.4 6.8 6.8
2.2 2.5 2.7 3.3 4.6 6.0 7.0 7.5 7.5 7.5 7.5 7.4 7.4 7.4 7.2 6.9 7.1 7.4 7.6 7.9 7.6 6.4 6.4 5.3 6.3 4.6 5.0 6.2 6.3 6.1 5.9 5.7 5.7 5.6 5.8 5.6 5.4 4.8 5.0 5.6 6.1 6.7 7.0 7.0 6.9 6.9 7.1
2.2 2.3 2.6 3.4 4.7 6.1 6.9 7.5 7.5 7.4 7.4 7.4 7.4 7.2 7.1 7.1 7.2 7.4 7.4 7.9 7.6 6.4 6.5 5.8 6.2 5.6 5.0 5.5 6.3 6.0 6.0 5.6 5.3 5.4 5.6 5.5 4.8 5.4 6.0 6.0 6.4 6.8 6.5 7.6 7.1 6.7 6.8
2.5 2.7 2.6 3.2 4.6 6.0 6.9 7.3 7.5 7.5 7.4 7.4 7.3 7.3 7.2 7.2 7.2 7.3 7.3 7.4 7.1 7.2 6.1 6.1 6.5 6.5 5.9 4.9 5.6 6.1 6.0 5.6 5.6 5.7 5.6 5.5 4.8 5.8 5.9 6.1 6.3 6.4 6.3 7.4 6.7 6.6 6.9
2.4 2.6 2.6 3.1 4.5 5.7 6.7 7.1 7.4 7.5 7.4 7.4 7.4 7.3 7.3 7.3 7.3 7.3 7.3 7.4 7.1 6.9 6.5 7.1 5.8 6.2 6.2 5.4 5.6 6.2 6.0 6.5 5.7 5.4 6.0 5.5 5.9 6.2 5.9 5.9 6.3 6.3 6.8 7.3 6.8 6.8 6.5
2.4 2.6 2.6 3.2 4.3 5.3 6.6 7.1 7.3 7.5 7.6 7.5 7.5 7.4 7.3 7.5 7.4 7.3 7.3 7.3 7.1 6.8 6.6 7.7 6.4 6.2 6.3 5.6 5.5 5.7 6.1 6.0 6.3 6.0 5.9 5.2 5.6 5.6 5.6 5.7 6.4 6.4 7.2 7.2 6.9 7.0 7.1
2.2 2.4 2.3 2.7 3.9 5.1 6.3 7.0 7.2 7.5 7.5 7.7 7.6 7.5 7.5 7.5 7.4 7.4 7.4 7.4 6.7 6.7 6.6 6.6 6.5 6.4 6.4 6.3 6.2 6.4 6.7 6.0 6.2 6.4 6.6 6.5 6.1 6.3 5.9 6.2 6.5 7.1 7.3 7.1 6.8 6.7 5.6
1.9 2.2 2.3 2.6 3.3 4.7 5.8 6.8 7.1 7.5 7.6 7.8 7.7 7.7 7.7 7.6 7.6 7.5 7.5 7.5 6.9 6.3 6.8 5.8 6.1 6.8 6.4 6.5 6.2 6.0 6.5 5.9 5.9 6.1 6.0 5.8 6.0 6.0 6.0 6.4 6.7 6.5 6.9 6.0 5.6 5.2 4.8
2.0 2.2 2.2 2.4 2.9 4.1 5.2 6.3 7.0 7.3 7.8 7.9 7.8 7.8 7.8 7.7 7.7 7.6 7.7 7.3 6.6 7.1 6.3 6.4 6.1 5.7 5.4 6.4 6.1 5.8 6.7 6.2 6.4 6.3 6.4 5.9 5.1 5.5 5.9 6.4 5.9 5.7 6.5 6.3 4.8 4.3 4.7
2.2 2.1 2.3 2.2 2.7 3.5 4.7 5.7 6.4 6.7 7.5 8.1 7.9 7.9 7.9 7.7 7.5 7.6 7.4 7.3 7.6 6.8 6.2 5.8 6.3 5.7 6.3 6.5 6.4 6.1 6.2 6.1 6.8 6.5 6.5 6.0 6.1 6.3 6.1 6.7 6.7 6.5 6.5 7.3 7.5 7.1 6.4
2.5 2.3 2.2 2.3 2.2 3.1 4.2 5.1 5.9 6.4 7.2 8.0 8.1 8.1 7.8 7.8 7.6 7.6 7.4 7.6 7.7 7.2 6.1 5.6 5.6 5.4 5.5 6.6 6.4 6.2 6.0 6.0 6.9 6.8 7.2 7.1 6.6 6.5 6.8 6.7 6.7 6.7 6.9 7.3 7.2 5.3 5.2
2.9 2.8 2.4 2.3 2.3 2.8 3.7 4.7 5.7 6.4 7.1 8.0 8.0 8.2 7.7 7.7 7.8 7.6 7.6 7.6 7.4 7.3 6.9 6.1 5.8 5.5 5.5 5.4 6.5 6.4 6.1 6.5 6.7 7.1 7.9 7.2 7.4 6.5 6.6 6.2 5.9 5.9 6.5 6.9 7.5 7.1 4.3
2.9 3.0 2.9 2.4 2.4 2.6 3.4 4.4 5.4 6.3 7.1 7.6 8.1 8.0 7.7 7.7 7.9 7.5 7.4 7.2 7.3 7.2 6.8 6.3 6.0 5.8 5.7 5.4 5.7 6.3 6.4 6.7 7.1 7.3 7.7 8.1 8.1 6.0 6.2 6.4 6.6 6.9 7.1 6.9 6.9 6.3 6.8
2.8 3.0 3.1 2.7 2.5 2.6 3.0 4.1 4.9 5.9 6.7 7.6 7.8 7.9 7.7 7.6 7.4 7.5 7.6 7.5 7.2 7.1 6.6 6.1 5.9 5.7 5.4 5.6 5.9 5.9 6.4 6.8 7.4 7.3 7.7 8.3 7.7 7.0 6.3 6.5 6.8 6.5 6.6 6.5 7.2 7.7 7.3
2.7 3.1 3.2 2.9 2.7 2.5 2.8 3.5 4.7 5.5 6.2 7.0 7.6 7.8 7.8 7.5 7.1 6.9 6.8 7.5 7.2 7.1 6.8 6.3 6.0 6.1 5.7 6.0 5.8 6.3 6.3 7.1 7.5 7.3 7.6 8.5 8.0 8.0 5.8 5.4 5.6 5.4 6.4 6.9 7.1 7.5 7.1
2.6 2.9 3.0 3.1 3.0 2.6 2.7 3.2 4.3 5.2 6.0 6.6 7.0 7.0 7.1 7.2 7.3 7.1 6.8 6.9 6.9 6.9 6.9 6.3 5.9 5.9 5.8 5.5 6.2 6.1 6.5 6.9 7.2 6.7 7.4 7.6 7.9 8.2 7.6 7.2 7.2 7.2 6.9 7.0 6.7 6.7 7.4
2.7 2.8 2.8 3.0 2.9 2.6 2.7 2.9 3.4 4.9 5.8 6.1 6.5 6.4 6.7 6.9 6.8 6.5 6.6 6.8 6.8 6.8 6.6 6.5 5.5 5.7 5.6 5.4 5.8 5.7 6.4 6.8 6.6 6.6 6.7 7.4 7.6 8.0 8.3 8.1 8.0 7.5 7.7 7.7 7.5 7.4 7.4
2.8 2.7 2.7 2.9 3.0 2.7 2.6 2.7 3.1 4.1 5.4 6.1 6.0 6.1 6.2 6.8 6.4 6.0 6.4 6.4 6.5 6.2 6.4 6.1 5.2 5.1 6.0 6.4 5.8 6.1 6.0 6.6 6.6 7.1 6.9 6.8 6.6 7.5 7.6 8.3 8.3 7.9 7.3 7.3 7.1 7.4 7.1
3.1 2.9 2.8 3.0 3.1 2.9 2.6 2.6 2.8 3.2 4.2 5.1 5.5 5.9 5.9 6.3 6.0 6.1 6.4 6.3 6.5 6.4 5.7 6.3 5.6 5.0 6.5 5.7 5.5 5.9 6.0 6.5 6.6 7.0 6.6 6.5 6.6 7.0 7.3 8.1 6.2 7.3 7.2 7.5 7.8 7.9 7.8
3.4 3.2 3.1 3.2 3.1 3.1 2.8 2.7 2.7 2.9 3.6 4.5 5.4 5.4 5.6 6.1 6.1 6.6 6.6 6.6 6.8 6.7 5.9 6.0 5.8 5.6 6.2 6.0 6.1 6.3 6.2 6.6 6.7 6.8 6.8 6.6 6.5 6.7 6.9 7.2 7.8 7.4 7.6 7.3 6.8 6.8 7.3
3.7 3.4 3.4 3.5 3.4 3.1 3.1 3.0 2.8 2.8 3.2 4.0 4.9 5.6 5.6 5.7 6.2 6.1 6.6 6.5 6.4 6.5 6.8 6.4 5.9 5.8 6.5 6.2 6.4 6.7 6.4 6.5 6.4 6.6 6.6 6.3 6.4 6.3 6.1 6.3 6.3 7.0 7.3 7.7 7.5 6.9 7.1
3.9 3.8 3.6 3.6 3.7 3.4 3.3 3.2 3.0 2.9 2.9 3.3 4.3 5.2 5.4 5.8 6.3 6.1 6.1 6.3 6.4 6.2 6.3 6.3 6.2 5.8 5.9 6.2 6.6 6.9 6.9 7.0 6.6 6.5 6.4 6.3 6.2 6.2 6.2 6.3 6.4 6.6 7.2 7.6 7.1 6.6 7.0
4.0 4.1 4.0 3.9 3.9 3.8 3.5 3.3 3.2 3.0 2.9 3.1 3.5 4.6 5.4 6.0 6.2 6.3 6.2 6.2 6.3 6.2 6.0 6.1 6.6 6.6 6.4 6.0 6.6 6.9 7.1 7.0 7.0 6.9 7.0 6.6 6.4 6.3 6.3 6.4 6.3 6.7 7.0 7.2 7.4 7.4 7.2
4.2 4.2 4.4 4.2 4.1 4.1 3.9 3.6 3.3 3.1 3.0 3.0 3.3 3.9 5.2 5.8 6.2 6.2 6.1 6.1 6.1 6.1 6.0 5.8 5.8 5.8 5.8 5.9 6.7 6.6 6.9 6.8 6.7 6.7 7.0 6.9 7.0 6.9 6.8 6.7 6.9 7.0 7.2 7.5 7.7 7.6 7.5
Wind_Speed
30 31 32 31 31 29 27 22 16 11 11 12 12 10 9 12 13 14 15 15 18 12 15 17 13 6 2 7 9 5 3 13 15 13 15 13 12 10 8 10 7 8 5 6 8 4 6
33 31 31 30 30 28 26 23 18 13 12 12 10 10 9 10 11 11 17 17 15 17 14 17 21 5 5 14 2 4 5 13 13 16 14 11 7 14 5 8 11 9 8 6 7 6 2
32 33 32 31 29 27 26 24 21 17 14 11 8 10 10 10 12 13 13 16 16 18 16 17 21 9 13 14 3 4 6 8 13 15 11 12 9 10 6 7 6 6 6 6 6 8 5
34 32 32 33 31 28 26 24 21 16 11 8 7 7 10 11 13 13 15 19 19 13 15 18 18 12 8 15 23 10 5 8 6 8 6 8 3 5 4 4 3 5 6 6 9 10 4
34 32 32 32 31 29 28 26 22 16 9 8 6 6 8 11 14 14 17 22 27 28 12 16 10 10 8 5 11 11 9 7 6 6 2 3 3 5 4 5 4 8 6 9 7 10 6
34 34 33 33 32 30 28 26 22 17 12 11 9 9 11 13 15 15 18 27 28 21 5 4 13 11 10 12 7 10 11 8 8 9 5 5 5 5 5 7 10 7 6 9 9 9 6
35 34 33 33 32 31 28 26 23 18 16 14 13 13 12 14 16 15 11 7 6 4 7 7 11 8 5 15 11 12 15 10 8 10 9 9 6 16 13 13 10 8 9 10 8 10 9
35 34 34 32 33 32 30 26 24 22 17 14 15 14 14 14 14 11 6 5 3 2 10 14 19 12 21 17 9 15 15 11 10 10 10 6 15 10 9 10 12 11 8 11 7 9 6
33 35 35 33 32 32 30 28 26 23 20 16 16 15 14 16 14 5 5 9 10 7 5 9 11 5 9 7 10 21 20 9 14 13 19 9 8 13 14 10 16 9 8 8 7 6 3
32 32 33 34 33 32 30 28 26 24 23 20 17 16 16 20 6 2 3 9 6 2 4 5 7 7 12 6 7 19 20 14 8 17 15 10 14 19 14 15 11 10 6 1 14 7 4
34 31 30 31 31 32 32 32 27 24 22 21 20 19 17 13 7 4 3 7 4 3 4 10 10 9 7 12 11 12 20 12 17 12 11 9 14 11 17 13 10 5 6 7 6 8 3
35 37 36 29 27 29 29 30 28 28 25 23 23 24 20 8 4 7 5 2 1 2 5 6 6 8 13 18 7 18 14 13 2 9 16 8 1 9 12 8 9 5 8 6 3 4 0
35 38 37 35 28 28 28 28 29 29 28 27 27 26 15 10 5 3 2 2 4 3 1 7 8 5 16 18 14 12 18 18 11 15 17 6 4 3 1 7 6 9 8 2 1 0 5
36 37 39 37 35 29 28 28 29 28 29 29 30 30 6 6 9 2 2 2 4 4 4 1 2 12 10 18 22 13 20 17 16 9 12 10 5 8 4 13 9 12 12 5 6 5 5
35 36 38 38 38 35 33 32 31 30 29 28 26 4 2 3 5 1 0 2 3 7 2 6 9 7 3 14 12 16 17 23 17 12 8 12 6 11 11 2 12 8 13 4 4 2 4
34 33 37 38 38 38 36 35 34 32 29 30 7 4 2 5 3 2 1 5 2 5 3 4 4 4 6 15 10 15 18 17 21 16 14 8 5 5 4 2 3 6 6 7 1 7 5
37 36 34 36 36 39 38 37 37 35 33 25 3 4 3 6 0 2 2 5 12 13 11 3 4 4 6 6 10 10 13 16 24 21 16 5 5 6 8 9 13 3 7 4 6 5 6
37 37 37 34 35 35 37 38 38 37 36 12 3 3 3 4 2 1 3 11 9 10 11 3 6 9 6 3 6 6 18 21 25 21 21 14 2 6 9 3 2 8 10 10 9 7 3
36 37 37 37 35 34 35 36 37 37 36 5 4 3 3 3 4 4 9 12 12 12 11 3 7 8 5 3 3 8 13 15 23 23 21 12 5 5 5 1 2 11 14 17 6 4 10
36 37 37 37 36 36 33 33 35 37 38 7 2 3 1 2 1 5 10 8 11 10 13 10 12 10 7 5 5 7 8 7 7 23 21 14 5 7 11 9 7 5 11 7 11 3 4
36 37 37 38 38 36 35 33 34 36 39 6 3 2 2 4 5 11 10 5 9 8 7 9 5 8 10 7 7 11 17 17 6 3 14 9 15 9 10 8 12 13 14 16 11 21 11
35 36 37 37 37 37 36 35 30 31 34 4 3 3 0 5 5 6 11 4 12 6 3 8 11 18 18 14 11 14 8 8 6 9 1 5 2 8 8 10 13 16 20 17 18 20 19
35 36 36 37 37 37 36 34 31 27 23 3 3 5 2 4 2 5 4 9 19 17 7 6 19 19 20 18 15 13 11 18 11 9 13 11 4 3 13 2 6 3 21 20 17 17 16
34 35 36 36 37 37 36 35 31 26 20 3 4 4 2 4 4 6 15 14 17 20 21 21 17 17 7 6 12 11 15 9 6 5 5 5 7 3 3 4 4 7 11 12 21 21 19
34 34 35 36 36 37 36 35 31 27 22 6 4 3 2 4 6 10 15 12 17 16 15 18 14 14 13 8 4 4 3 2 2 5 7 6 4 1 4 7 2 2 5 15 12 13 9
34 35 35 36 36 37 36 36 32 27 22 7 5 2 2 4 3 10 10 12 10 9 8 6 15 13 9 4 4 5 3 4 4 4 2 4 9 7 4 6 10 4 5 5 5 13 10
35 36 36 37 36 37 37 36 32 26 21 9 4 1 2 3 4 6 5 5 5 5 5 8 10 8 5 3 3 2 3 7 6 8 6 5 4 12 9 4 5 5 3 5 9 7 2
36 37 38 37 38 38 39 37 32 25 19 6 5 5 1 2 9 3 2 5 3 2 4 7 7 2 3 2 3 3 3 5 4 6 7 8 7 5 4 5 9 6 4 8 2 4 4
37 38 38 39 40 39 39 37 31 23 16 12 2 2 2 4 5 3 9 4 4 3 4 3 4 5 3 4 3 3 1 2 4 4 1 4 4 6 6 4 4 5 5 2 1 2 4
Wind_Direction
357 359 354 353 350 351 349 344 323 305 296 291 296 304 318 327 334 334 329 325 316 321 320 310 290 250 207 224 243 27 16 173 170 184 211 202 202 185 222 193 227 222 227 183 84 82 303
360 1 357 355 352 351 352 350 344 326 309 297 299 316 315 325 336 338 335 329 317 306 321 328 321 221 224 241 298 312 147 154 179 191 198 207 212 203 273 231 204 181 250 140 125 166 55
1 3 358 357 354 352 349 346 345 333 317 313 336 336 328 324 313 311 319 322 313 306 309 313 294 228 237 221 88 39 170 181 177 196 188 207 241 188 203 255 180 270 181 147 175 160 156
4 6 1 360 358 355 352 349 343 343 338 353 348 339 328 325 319 311 311 310 299 287 291 285 289 233 241 218 246 269 259 170 161 202 246 215 291 290 227 333 102 185 160 162 186 163 149
6 6 5 4 2 358 358 356 352 354 0 7 355 348 339 333 327 313 306 306 302 290 258 270 283 211 223 170 212 185 206 181 179 164 239 250 117 248 141 189 187 211 187 191 145 173 133
8 7 8 4 5 0 3 5 6 5 4 2 354 349 347 338 332 318 314 305 294 291 271 240 259 199 241 193 162 185 197 174 163 153 142 207 188 200 189 188 197 183 230 194 153 187 163
8 7 10 8 5 5 3 3 5 359 355 354 351 348 348 338 335 330 323 320 357 9 15 265 307 261 132 184 155 182 174 168 188 172 167 197 188 199 192 207 223 196 206 195 186 177 167
7 8 8 8 7 7 7 7 6 7 360 356 344 343 341 333 330 330 294 76 88 193 301 299 274 272 292 171 162 177 169 160 187 185 183 163 215 200 209 210 233 243 217 225 26 141 145
2 5 7 8 9 9 9 9 8 6 1 358 353 351 346 328 326 294 74 136 165 180 272 288 228 237 262 205 188 177 180 178 181 186 198 184 164 202 203 220 219 229 242 185 144 149 282
3 1 1 5 6 7 8 9 10 8 5 360 352 348 344 335 288 299 303 166 168 152 291 250 183 221 248 242 226 174 193 164 183 196 191 224 212 192 206 220 199 211 228 357 129 123 187
3 5 360 356 0 2 3 2 3 7 4 355 345 340 336 325 302 317 105 156 175 210 287 152 152 134 221 221 132 168 188 231 179 172 183 196 188 198 209 199 187 230 129 124 146 163 107
5 3 359 355 357 356 356 355 358 356 354 349 338 334 323 310 265 305 113 174 270 213 256 307 125 178 180 218 258 146 175 237 198 189 197 165 323 180 192 189 167 140 106 78 95 113 253
2 3 3 2 1 358 355 351 349 349 350 343 337 324 314 287 271 47 358 280 266 222 213 343 353 276 196 193 227 171 180 197 183 173 181 139 167 86 91 160 172 162 152 121 46 90 213
2 2 6 7 1 358 356 350 349 347 339 336 333 315 267 304 300 293 238 258 256 329 39 300 30 303 264 179 208 208 176 183 227 173 164 167 179 158 196 185 172 184 180 150 169 170 206
6 360 1 5 6 6 0 356 351 348 343 336 333 325 354 8 346 70 171 233 285 1 354 333 304 326 248 194 177 209 189 186 199 196 156 180 199 153 166 214 152 208 215 161 108 2 133
6 3 0 1 1 4 6 4 360 354 348 337 323 312 9 24 71 50 226 263 283 311 336 304 320 133 306 182 193 200 188 198 192 212 236 154 120 177 120 70 268 198 155 204 230 157 204
7 4 4 1 358 359 1 2 3 1 353 339 311 344 21 27 293 83 288 303 326 326 322 239 294 257 242 267 272 193 200 180 197 199 231 227 122 169 131 216 175 154 204 199 137 164 170
7 5 4 1 360 357 357 356 355 359 358 351 316 349 41 336 327 18 323 312 309 298 313 283 296 254 270 288 291 232 211 208 182 186 210 221 141 162 192 47 214 196 190 195 193 207 187
4 5 4 3 359 360 357 356 352 353 358 340 331 324 88 10 39 341 315 309 298 298 303 238 223 219 271 202 281 283 222 231 186 188 197 193 216 113 151 184 189 207 212 206 232 137 200
1 1 1 1 0 358 356 356 353 351 350 346 9 353 356 68 62 333 324 314 331 325 302 288 292 280 272 308 220 292 308 235 253 198 198 183 190 185 193 194 121 190 194 211 207 230 176
359 359 359 359 358 359 358 354 355 352 346 334 32 25 81 324 320 318 306 274 301 337 344 325 312 322 283 264 261 258 253 263 170 305 202 184 208 215 199 194 175 188 193 198 194 218 201
357 357 357 357 356 356 357 355 356 355 348 353 16 341 353 283 293 284 295 358 311 308 275 281 287 287 289 271 276 278 333 265 182 207 303 220 257 217 220 202 195 192 201 200 207 221 218
353 354 355 355 354 353 354 355 353 356 359 335 331 304 242 272 257 301 297 331 306 304 292 287 300 287 283 289 267 262 264 268 244 174 195 210 144 105 227 194 98 8 192 199 208 223 208
350 351 352 353 352 350 351 352 352 350 352 331 313 292 280 286 306 307 308 313 306 298 292 293 289 266 250 261 311 260 230 267 87 71 90 120 166 77 196 91 157 235 177 198 205 215 216
349 349 349 351 350 348 348 349 349 346 343 333 321 301 310 286 304 303 329 311 304 298 297 296 298 280 240 271 246 234 185 109 182 155 160 164 103 93 158 213 287 72 183 189 184 237 204
348 348 347 348 348 346 345 346 345 344 339 330 306 314 329 297 246 341 314 299 311 321 312 291 307 308 164 220 209 214 186 136 147 125 5 162 187 190 145 186 223 232 179 163 96 239 195
348 347 347 347 346 344 344 344 342 341 337 328 281 175 277 270 277 330 307 312 304 298 280 305 340 328 221 224 216 182 214 141 163 152 155 167 172 198 200 186 265 239 228 122 142 235 268
348 347 347 346 345 345 344 342 341 339 335 331 280 219 178 262 292 270 285 295 294 285 301 311 317 24 291 247 202 223 229 213 123 155 170 167 168 184 184 192 243 162 43 161 207 329 335
348 347 346 345 344 344 344 343 341 339 337 330 285 88 259 243 260 308 279 226 223 267 297 306 283 299 336 321 337 312 322 359 164 175 307 163 185 171 184 187 23 23 44 35 285 112 20